Weather History for Alliance, NE

Change the Weather History Date:

Saturday, November 3, 2012

  Actual Average Record
Temperature  
Mean Temperature 41 °F 39 °F  
Max Temperature 61 °F 55 °F 74 °F (1900)
Min Temperature 21 °F 23 °F -6 °F (1991)
Degree Days  
Heating Degree Days 24 26  
Month to date heating degree days 62 77  
Since 1 July heating degree days 832 919  
Cooling Degree Days 0 0  
Month to date cooling degree days 0 0  
Year to date cooling degree days 959 564  
Moisture  
Dew Point 26 °F    
Average Humidity 62    
Maximum Humidity 96    
Minimum Humidity 27    
Precipitation  
Precipitation 0.00 in 0.02 in 0.97 in (1938)
Month to date precipitation 0.00 0.07  
Year to date precipitation 6.53 14.96  
Sea Level Pressure  
Sea Level Pressure 30.17 in    
Wind  
Wind Speed 6 mph (West)    
Max Wind Speed 18 mph    
Max Gust Speed 22 mph    
Visibility 10 miles    
Events      
T = Trace of Precipitation, MM = Missing Value Source: NWS Daily Summary

Daily Weather History Graph

Daily Weather History Graph

Search for Another Location

Airport:

Trip Planner

Search our weather history database for the weather conditions in past years. The results will help you decide how hot, cold, wet, or windy it might be!

Date:

Astronomy

Nov. 03, 2012 Rise Set
Actual Time 7:27 AM MDT 5:41 PM MDT
Civil Twilight 6:57 AM MDT 6:11 PM MDT
Nautical Twilight 6:24 AM MDT 6:44 PM MDT
Astronomical Twilight 5:52 AM MDT 7:16 PM MDT
Moon 9:23 PM MDT (11/3) 11:34 AM MDT (11/3)
Length of Visible Light 11h 13m
Length of Day
10h 14m
Waning Gibbous, 80% of the Moon is Illuminated
Nov 3
Waning Gibbous
Nov 6
Last Quarter
Nov 13
New
Nov 20
First Quarter
Nov 28
Full

Hourly Weather History & Observations

Time (MDT) Temp. Windchill Dew Point Humidity Pressure Visibility Wind Dir Wind Speed Gust Speed Precip Events Conditions
12:53 AM 27.0 °F 19.5 °F 24.1 °F 89% 30.17 in 10.0 mi WNW 6.9 mph - N/A   Scattered Clouds
1:53 AM 32.0 °F 28.7 °F 27.0 °F 82% 30.15 in 10.0 mi West 3.5 mph - N/A   Overcast
2:53 AM 30.9 °F 27.5 °F 26.1 °F 82% 30.16 in 10.0 mi North 3.5 mph - N/A   Clear
3:53 AM 25.0 °F 16.3 °F 23.0 °F 92% 30.18 in 10.0 mi West 8.1 mph - N/A   Partly Cloudy
4:53 AM 23.0 °F 15.8 °F 19.9 °F 88% 30.20 in 10.0 mi WSW 5.8 mph - N/A   Clear
5:53 AM 24.1 °F 17.0 °F 21.0 °F 88% 30.22 in 10.0 mi West 5.8 mph - N/A   Clear
6:53 AM 23.0 °F 18.4 °F 21.0 °F 92% 30.23 in 10.0 mi WNW 3.5 mph - N/A   Clear
7:53 AM 21.9 °F 14.5 °F 19.0 °F 89% 30.25 in 10.0 mi West 5.8 mph - N/A   Clear
8:53 AM 30.9 °F - 27.0 °F 85% 30.24 in 10.0 mi Calm Calm - N/A   Clear
9:53 AM 41.0 °F - 30.9 °F 67% 30.23 in 10.0 mi Calm Calm - N/A   Clear
10:53 AM 48.0 °F - 30.0 °F 50% 30.21 in 10.0 mi SE 3.5 mph - N/A   Clear
11:53 AM 55.0 °F - 30.0 °F 38% 30.18 in 10.0 mi SSE 8.1 mph - N/A   Clear
12:53 PM 59.0 °F - 30.0 °F 33% 30.14 in 10.0 mi SSW 15.0 mph 18.4 mph N/A   Clear
1:53 PM 60.1 °F - 30.0 °F 32% 30.10 in 10.0 mi WSW 10.4 mph 21.9 mph N/A   Clear
2:53 PM 61.0 °F - 28.0 °F 29% 30.08 in 10.0 mi WSW 10.4 mph 17.3 mph N/A   Clear
3:53 PM 60.1 °F - 26.1 °F 27% 30.09 in 10.0 mi West 10.4 mph - N/A   Clear
4:53 PM 55.0 °F - 27.0 °F 34% 30.12 in 10.0 mi WNW 5.8 mph - N/A   Clear
5:53 PM 44.1 °F 40.8 °F 27.0 °F 51% 30.14 in 10.0 mi West 5.8 mph - N/A   Clear
6:53 PM 41.0 °F 39.0 °F 27.0 °F 57% 30.17 in 10.0 mi WSW 3.5 mph - N/A   Clear
7:53 PM 34.0 °F 28.8 °F 25.0 °F 70% 30.21 in 10.0 mi West 5.8 mph - N/A   Clear
8:53 PM 33.1 °F 27.7 °F 25.0 °F 72% 30.19 in 10.0 mi West 5.8 mph - N/A   Clear
9:53 PM 28.0 °F 21.7 °F 24.1 °F 85% 30.17 in 10.0 mi West 5.8 mph - N/A   Clear
10:53 PM 28.0 °F 20.0 °F 23.0 °F 81% 30.15 in 10.0 mi West 8.1 mph - N/A   Clear
11:53 PM 25.0 °F 16.3 °F 21.9 °F 88% 30.13 in 10.0 mi West 8.1 mph - N/A   Clear